This is the latest recevied weather packets stored in our database for station/object EA5GTE-12. If no packets are shown the sender has not sent any weather packets the latest 10 day(s).
| Time | Temp. | Humidity | Pressure | Rain* | Wind** | Luminosity | Snow |
|---|---|---|---|---|---|---|---|
| 1788346420 | 39.44° C | 23% | 944 hPa | - | - | - | - |
| 1788345520 | 38.33° C | 25% | 944 hPa | - | - | - | - |
| 1788343722 | 37.22° C | 24% | 944.2 hPa | - | - | - | - |
| 1788342822 | 37.22° C | 25% | 944.3 hPa | - | - | - | - |
| 1788341922 | 38.33° C | 25% | 944.3 hPa | - | - | - | - |
| 1788341021 | 36.11° C | 30% | 944.5 hPa | - | - | - | - |
| 1788340121 | 35° C | 37% | 944.5 hPa | - | - | - | - |
| 1788339221 | 35° C | 39% | 944.5 hPa | - | - | - | - |
| 1788338320 | 36.11° C | 41% | 944.4 hPa | - | - | - | - |
| 1788337420 | 32.78° C | 52% | 944.4 hPa | - | - | - | - |
| 1788336520 | 30.56° C | 66% | 944.5 hPa | - | - | - | - |
| 1788335620 | 29.44° C | 70% | 944.4 hPa | - | - | - | - |
| 1788334720 | 27.78° C | 80% | 944.4 hPa | - | - | - | - |
| 1788333820 | 26.11° C | 94% | 944.4 hPa | - | - | - | - |
| 1788332920 | 23.89° C | 100% | 944.4 hPa | - | - | - | - |
| 1788332020 | 22.22° C | 100% | 944.5 hPa | - | - | - | - |
| 1788331120 | 21.11° C | 100% | 944.3 hPa | - | - | - | - |
| 1788330220 | 20.56° C | 100% | 944.3 hPa | - | - | - | - |
| 1788329320 | 19.44° C | 100% | 944.2 hPa | - | - | - | - |
| 1788328420 | 18.33° C | 100% | 944.3 hPa | - | - | - | - |
| 1788327528 | 18.89° C | 100% | 944 hPa | - | - | - | - |
| 1788326619 | 18.89° C | 100% | 944 hPa | - | - | - | - |
| 1788325719 | 18.89° C | 100% | 943.6 hPa | - | - | - | - |
| 1788324819 | 18.89° C | 100% | 943.5 hPa | - | - | - | - |
| 1788323919 | 18.89° C | 100% | 943.5 hPa | - | - | - | - |
* Rain since midnight (hover to see other rain measurements)
** Current wind speed in m/s (hover to see current wind gust speed)